Hourly Data Report for October 16, 2013

All times are specified in Local Standard Time (LST). Add 1 hour to adjust for Daylight Saving Time where and when it is observed.

EMERSON AUTO
MANITOBA

49°00'00.000" N
97°14'15.000" W
242.00 m
5020881
71560
WEX

Download Data

Hourly Data (October 2013)
Hourly Data Report for October 16, 2013
Temp Definition
°C
Dew Point Temp Definition
°C
Rel Hum Definition
%
Wind Dir Definition
10's deg

Wind Spd Definition
km/h
Visibility Definition
km
Stn Press Definition
kPa
Hmdx Definition


Wind Chill Definition


Weather Definition


TIME
00:00 -1.6 -2.6 93 18 9   98.60   -5 LegendNANA
01:00 -0.7 -1.8 92 18 11   98.53   -4 LegendNANA
02:00 0.5 -0.7 92 18 13   98.44     LegendNANA
03:00 0.2 -1.0 92 18 13   98.34     LegendNANA
04:00 0.6 -0.7 91 16 11   98.25     LegendNANA
05:00 0.8 -0.5 91 17 11   98.18     LegendNANA
06:00 0.5 -0.6 92 17 11   98.12     LegendNANA
07:00 0.3 -0.7 93 17 11   98.08     LegendNANA
08:00 1.5 -0.4 87 17 11   98.05     LegendNANA
09:00 3.9 1.0 81 18 11   98.05     LegendNANA
10:00 6.8 1.8 70 20 9   98.01     LegendNANA
11:00 9.4 1.8 59 23 7   98.00     LegendNANA
12:00 11.1 2.6 56 24 11   97.98     LegendNANA
13:00 12.1 2.3 51 25 13   97.97     LegendNANA
14:00 13.5 3.5 51 31 19   97.93     LegendNANA
15:00 13.6 2.9 48 31 11   97.91     LegendNANA
16:00 13.3 4.5 55 32 13   97.92     LegendNANA
17:00 12.8 4.5 57 31 11   97.95     LegendNANA
18:00 7.9 3.6 74 28 7   97.98     LegendNANA
19:00 5.8 3.2 83 28 9   98.01     LegendNANA
20:00 5.4 3.7 89 25 6   98.00     LegendNANA
21:00 6.0 3.8 86 26 2   98.01     LegendNANA
22:00 5.3 3.1 86 28 6   98.03     LegendNANA
23:00 8.0 5.2 82 34 20   98.11     LegendNANA

Notes on Data Quality.

Legend

  • E = Estimated
  • M = Missing
  • NA = Not Available
  • ‡ = Partner data that is not subject to review by the National Climate Archives
Date modified: